|
NORAD ID: 35579 Int'l Code: 2009-037B
Perigee: 618.5 km
Apogee: 689.1 km
Inclination: 9.0 °
Period: 97.7 minutes
Semi major axis: 7024 km
Launch date: July 14, 2009
Source: United States (US)
Note: This is a ROCKET BODY
Two Line Element Set (TLE):
1 35579U 09037B 13143.51329727 .00001910 00000-0 18551-3 0 8809
2 35579 009.0442 215.9178 0050278 155.7217 330.7076 14.74522213208202
Source:
NASA's NSSDC Master Catalog entry for FALCON 1 R/B
|